Boulder City, Nevada Weather observations

Data are for observation ending at time listed.
 Day   Time    Ave.   Ave.  Ave.  Vector   Max.   Stn.    Total    Solar   Ave.  
  of    of     Air    Rel.  Wind   Wind    Wind   Baro.  Precip.   Rad.    Soil  
Year   Day     Temp.  Hum.  Speed  Dir.    Gust   Pres.                    Temp. 
2020   (PST)    F      %     mph   deg.    mph     mb.     in.     W/m2     F   
------------------------------------------------------------------------------
 216    1:00   87.9     7    4.5   210      7.0   929.0    0.00       0    97.4
 216    1:10   87.7     7    4.8   220      7.0   929.0    0.00       0    97.2
 216    1:20   87.8     7    4.9   236      8.0   929.0    0.00       0    97.0
 216    1:30   88.5     7    5.1   246      8.6   929.0    0.00       0    96.7
 216    1:40   88.0     7    3.9   196      6.4   929.0    0.00       0    96.5
 216    1:50   88.0     7    3.5   208      6.9   929.0    0.00       0    96.3
 216    2:00   86.6     7    3.6   190      5.3   929.0    0.00       0    96.1
 216    2:10   85.1     8    3.6   205      4.9   929.0    0.00       0    95.9
 216    2:20   85.5     8    3.0   210      4.1   928.9    0.00       0    95.7
 216    2:30   85.4     8    2.7   195      3.8   929.0    0.00       0    95.4
 216    2:40   85.1     8    2.7   200      4.7   929.0    0.00       0    95.2
 216    2:50   86.5     8    3.5   229      6.1   929.0    0.00       0    95.0
 216    3:00   86.9     7    3.6   238      6.6   929.1    0.00       0    94.8
 216    3:10   86.8     7    3.5   219      5.1   929.2    0.00       0    94.6
 216    3:20   85.7     8    2.5   218      4.1   929.2    0.00       0    94.4
 216    3:30   84.4     8    2.4   201      3.6   929.2    0.00       0    94.1
 216    3:40   83.3     8    3.0   192      4.5   929.3    0.00       0    93.9
 216    3:50   82.8     8    2.7   195      3.9   929.3    0.00       0    93.7
 216    4:00   82.3     9    3.1   207      4.4   929.3    0.00       0    93.5
 216    4:10   81.5     9    3.1   207      3.9   929.3    0.00       0    93.3
 216    4:20   81.5     9    3.1   211      4.3   929.3    0.00       0    93.1
 216    4:30   81.1     9    2.5   213      3.4   929.4    0.00       0    92.8
 216    4:40   80.8     9    3.1   228      4.5   929.5    0.00       0    92.6
 216    4:50   80.6     9    3.5   211      5.4   929.6    0.00       2    92.4
 216    5:00   79.9    10    3.9   231      5.8   929.6    0.00       7    92.2
 216    5:10   80.7     9    3.9   236      5.2   929.6    0.00      20    92.0
 216    5:20   81.2     9    3.9   225      5.7   929.7    0.00      32    91.8
 216    5:30   81.1    10    4.1   221      5.1   929.8    0.00      43    91.6
 216    5:40   81.1    10    3.2   207      4.9   929.9    0.00      55    91.4
 216    5:50   82.5     9    3.1   216      4.4   930.0    0.00      96    91.3
 216    6:00   83.9     9    3.4   218      4.4   930.1    0.00     147    91.1
 216    6:10   85.4     9    3.1   214      4.9   930.3    0.00     175    91.0
 216    6:20   87.3     9    1.5   188      2.3   930.5    0.00     204    90.9
 216    6:30   89.7     9    0.4   165      2.4   930.8    0.00     236    90.8
 216    6:40   91.8    10    0.5   120      2.4   931.0    0.00     277    90.8
 216    6:50   92.3    10    1.1    13      2.3   931.3    0.00     308    90.8
 216    7:00   91.3    10    1.6   358      3.4   931.4    0.00     349    91.0
 216    7:10   91.8    10    1.6   348      2.7   931.6    0.00     385    91.1
 216    7:20   92.2    10    1.6    11      3.3   931.8    0.00     416    91.3
 216    7:30   92.8    10    1.2    26      2.9   931.9    0.00     443    91.5
 216    7:40   93.3    10    1.5     6      3.1   931.9    0.00     468    91.8
 216    7:50   93.6    10    1.4    28      2.9   932.0    0.00     498    92.3
 216    8:00   93.9    10    1.9     3      3.8   932.1    0.00     532    92.7
 216    8:10   94.1    10    2.1     5      4.7   932.2    0.00     574    93.1
 216    8:20   93.9    10    3.0     5      5.6   932.3    0.00     611    93.5
 216    8:30   94.5    10    2.2    34      4.0   932.3    0.00     643    94.0
 216    8:40   94.8    10    2.3     2      4.5   932.5    0.00     684    94.6
 216    8:50   95.9    10    1.9    32      3.9   932.6    0.00     709    95.1
 216    9:00   95.9    10    2.3    33      6.1   932.7    0.00     722    95.7
 216    9:10   97.0    10    2.3    52      5.6   932.7    0.00     750    96.4
 216    9:20   97.7     9    4.9    96      8.8   932.8    0.00     788    97.1
 216    9:30   98.5     9    4.0   130      7.7   932.8    0.00     813    97.8
 216    9:40   99.2    10    4.4   121     10.4   932.9    0.00     816    98.5
 216    9:50   98.9    11    3.9   128      8.5   932.9    0.00     754    99.3
 216   10:00   99.6    11    4.3   131     10.2   932.8    0.00     667    100.1
 216   10:10  100.1    12    4.6   120     10.4   932.8    0.00     592    100.9
 216   10:20  100.4    11    6.8   126     16.4   932.9    0.00     814    101.8
 216   10:30  100.3    12    7.4   117     14.9   932.8    0.00     810    102.7
 216   10:40  100.8    11    5.1   110     12.1   932.7    0.00     848    103.6
 216   10:50  101.9    11    5.0   134     12.2   932.6    0.00     907    104.5
 216   11:00  101.9    11    5.2   100     12.8   932.6    0.00     845    105.4
 216   11:10  102.5    10    6.0   115     20.0   932.6    0.00     865    106.2
 216   11:20  102.9    10    6.7   139     13.4   932.5    0.00     901    107.1
 216   11:30  102.3    10    6.8    96     17.5   932.4    0.00     877    108.0
 216   11:40  103.6     9    7.5   134     13.7   932.3    0.00     973    108.9
 216   11:50  103.7     9    7.9   103     14.9   932.2    0.00     973    109.7
 216   12:00  103.9     9    8.4   140     16.7   932.1    0.00     970    110.5
 216   12:10  104.1     9    5.0   121     11.9   931.9    0.00     969    111.2
 216   12:20  105.2     8    5.6   164     13.2   931.9    0.00     961    111.9
 216   12:30  105.2     8    4.6   156     15.6   931.8    0.00     952    112.6
 216   12:40  105.7     7    4.6   114     11.2   931.7    0.00     946    113.3
 216   12:50  106.2     7    5.2   119     16.0   931.5    0.00     934    114.0
 216   13:00  106.9     7    4.2   152     14.8   931.5    0.00     918    114.7
 216   13:10  106.3     7    4.9   146     16.3   931.4    0.00     908    115.3
 216   13:20  107.3     6    6.7   105     14.2   931.2    0.00     898    116.0
 216   13:30  106.5     6    5.7   135     14.2   931.2    0.00     876    116.6
 216   13:40  106.4     6    6.5   132     15.0   931.0    0.00     867    117.2
 216   13:50  106.6     6    7.5   112     12.7   930.9    0.00     852    117.7
 216   14:00  106.2     6    6.3   126     13.7   930.9    0.00     824    118.2
 216   14:10  106.2     6    7.6   108     16.6   930.7    0.00     805    118.7
 216   14:20  106.8     6    7.2   118     14.2   930.6    0.00     779    119.1
 216   14:30  107.3     6    7.6   108     15.6   930.6    0.00     749    119.4
 216   14:40  107.6     5    6.9   113     14.6   930.5    0.00     731    119.7
 216   14:50  107.5     5    6.3   115     16.1   930.5    0.00     702    119.9
 216   15:00  106.7     5    7.6   111     14.6   930.5    0.00     673    120.1
 216   15:10  106.7     5    6.3    92     11.5   930.3    0.00     647    120.3
 216   15:20  107.5     5    6.0   145     13.5   930.1    0.00     608    120.4
 216   15:30  107.2     5    5.5   123     12.1   930.1    0.00     582    120.4
 216   15:40  107.2     5    6.1   110     17.2   930.0    0.00     544    120.4
 216   15:50  107.5     5    4.7   121     13.9   929.8    0.00     516    120.3
 216   16:00  106.6     5    6.5   124     12.4   929.8    0.00     482    120.0
 216   16:10  106.3     5    6.3   124     13.6   929.6    0.00     447    119.6
 216   16:20  106.1     6    7.2   105     14.8   929.4    0.00     411    119.1
 216   16:30  105.9     6    7.5    91     14.5   929.3    0.00     369    118.7
 216   16:40  105.6     6    5.5    92     12.9   929.2    0.00     339    118.2
 216   16:50  105.3     6    6.4   108     14.0   929.1    0.00     305    117.8
 216   17:00  105.2     6    6.0   114     12.1   929.0    0.00     271    117.5
 216   17:10  105.0     6    4.8   133     11.6   928.9    0.00     227    117.1
 216   17:20  104.4     6    4.5   128     12.0   928.8    0.00     197    116.8
 216   17:30  103.8     6    4.1   130     13.9   928.6    0.00     173    116.4
 216   17:40  103.2     6    3.7    96     12.4   928.5    0.00     145    116.0
 216   17:50  102.8     6    4.6   111     13.4   928.5    0.00     118    115.6
 216   18:00  102.5     6    5.0   143     15.1   928.4    0.00      67    115.1
 216   18:10  102.1     6    4.7   144     11.3   928.4    0.00      36    114.6
 216   18:20  101.6     6    4.0   171      9.6   928.3    0.00      29    114.1
 216   18:30  101.0     6    3.2   152     10.1   928.2    0.00      21    113.6
 216   18:40  100.4     7    3.3   182      9.1   928.2    0.00      11    113.1
 216   18:50   99.9     7    2.9   176      8.3   928.2    0.00       5    112.6
 216   19:00   99.5     7    3.6   165      7.9   928.2    0.00       2    112.0
 216   19:10   99.1     7    5.0   189     10.5   928.2    0.00       0    111.5
 216   19:20   98.7     7    4.0   186      9.1   928.3    0.00       0    111.1
 216   19:30   98.3     8    4.6   192     11.0   928.3    0.00       0    110.6
 216   19:40   97.9     7    4.7   186     11.0   928.5    0.00       0    110.1
 216   19:50   97.6     7    4.6   193      9.7   928.6    0.00       0    109.6
 216   20:00   97.1     8    4.2   198      7.2   928.6    0.00       0    109.1
 216   20:10   96.7     8    5.2   190     10.2   928.6    0.00       0    108.6
 216   20:20   96.8     8    5.4   182     11.2   928.7    0.00       0    108.2
 216   20:30   96.7     8    5.1   186      9.6   928.8    0.00       0    107.7
 216   20:40   95.3     8    2.9   242      5.8   928.8    0.00       0    107.3
 216   20:50   93.8     8    3.3   246      5.5   928.8    0.00       0    106.9
 216   21:00   93.6     8    4.1   220      7.5   928.7    0.00       0    106.4
 216   21:10   94.7     8    5.3   221      9.3   928.7    0.00       0    106.1
 216   21:20   93.6     8    4.8   236      8.6   928.7    0.00       0    105.7
 216   21:30   93.2     8    4.2   233      6.7   928.7    0.00       0    105.2
 216   21:40   92.3     7    3.1   230      6.0   928.8    0.00       0    104.8
 216   21:50   90.8     8    2.7   206      4.2   928.7    0.00       0    104.5
 216   22:00   90.3     8    2.9   208      3.9   928.7    0.00       0    104.1
 216   22:10   90.3     7    3.7   219      6.3   928.7    0.00       0    103.7
 216   22:20   90.6     7    3.3   221      6.1   928.6    0.00       0    103.3
 216   22:30   90.3     7    4.1   212      6.1   928.5    0.00       0    102.9
 216   22:40   91.0     7    3.7   211      6.4   928.6    0.00       0    102.5
 216   22:50   89.8     7    3.7   209      6.1   928.7    0.00       0    102.1
 216   23:00   89.4     7    3.7   210      6.3   928.7    0.00       0    101.8
 216   23:10   89.4     7    4.7   218      7.6   928.7    0.00       0    101.4
 216   23:20   89.9     7    5.6   226      7.4   928.7    0.00       0    101.1
 216   23:30   89.8     7    4.8   229      7.3   928.6    0.00       0    100.7
 216   23:40   89.7     7    4.9   230      7.5   928.6    0.00       0    100.4
 216   23:50   89.1     7    3.5   201      5.8   928.6    0.00       0    100.1
 217    0:00   88.9     7    3.6   211      5.9   928.5    0.00       0    99.8
 217    0:10   88.4     7    3.2   204      5.0   928.5    0.00       0    99.5
 217    0:20   86.9     8    3.1   199      4.4   928.3    0.00       0    99.2
 217    0:30   86.2     8    4.5   182      7.1   928.2    0.00       0    98.9
 217    0:40   87.0     8    4.2   196      6.0   928.2    0.00       0    98.6
 217    0:50   87.4     7    4.3   209      6.6   928.1    0.00       0    98.3

Return to Boulder City, Nevada graphs page.


Western Regional Climate Center,wrcc@dri.edu